sat.trackr.live / text

‹ back to catalog

STARLINK-4630

NORAD 53680 · 2022-105AJ

PAYLOAD ACTIVE UNKNOWN

§ Identity

Operator
Country
US
Launch date
2022-08-31
Launch site
AFWTR
Launch vehicle
Mass (kg)
RCS (m²)

Purposes: comms

External: N2YO · Heavens-Above · Gunter

§ Orbital elements

Epoch: 2026-09-20T22:34:13.101888Z

Period
93.91 min
Inclination
97.2849°
Eccentricity
0.0001877
Mean motion
15.33434187 rev/d
Perigee alt
464.3 km
Apogee alt
466.9 km
Semi-major
6,843.7 km
B*
3.8501e-5
RAAN
140.7277°
Arg perigee
88.2016°
Mean anomaly
271.9442°
Rev number
22,281

§ Raw data

STARLINK-46301 53680U 22105AJ  26263.94042942  .00001168  00000+0  38501-4 0  99912 53680  97.2849 140.7277 0001877  88.2016 271.9442 15.33434187222812

JSON: /api/v1/satellites/53680 · /tle

For live sub-satellite position, see the globe view (requires WebGL).

§ Visibility from observer

Set your observer location to see the next 7 days of passes ≥ 10°. The values pass through the URL so the page stays shareable.

No JS? Fill the form by hand. The geolocation button needs JavaScript.